ブルックス第2彗星

16P/Brooks 2 (2001)

English version
Home page
Updated on February 26, 2002

---------------------------------------------------------------------

・ プロフィール

・ 軌道要素

Epoch 2001 July 30.0 TT = JDT 2452120.5  
T 2001 July 19.82529 TT                                 Muraoka 
q   1.8348981            (2000.0)            P               Q
n   0.14360644     Peri.  198.10882     +0.96574434     -0.25944321
a   3.6114929      Node   176.91398     +0.24843420     +0.91859892
e   0.4919281      Incl.    5.54817     +0.07495545     +0.29810274
P   6.86
From 228 observations 1980-1995, mean residual 0".93.
Nongravitational
   parameters A1 = +0.23 +/- 0.10, A2 = -0.1566 +/- 0.0003.

・ 星図

・ 光度変化

        m1 = 11.7 + 5 logΔ + 12.0 log r

---------------------------------------------------------------------

軌道要素は村岡健治氏の計算によるものです。
星図は StellaNavigator Ver.2.0 for Windows (アストロアーツ 編著 / アスキー出版局刊) で作成したものです。
光度グラフはComet for Windowsで作成したものです。

---------------------------------------------------------------------

Copyright(C) Seiichi Yoshida (comet@aerith.net). All rights reserved.